User: anonymous   Login
Location: Four Corners
(38.2757°N, 122.4608°W)
Time: 12:50:11
(UTC+00:00)
Language:

Cosmos 2242 Rocket - Orbit

View from above orbital plane
View from above orbital plane
View from above satellite
View from above satellite

Ground track
Ground track

The orbit data is extracted from the following two-line orbital elements,

1 22627U 93024B   20052.67642900 +.00000038 +00000-0 +20893-5 0  9998
2 22627 082.5200 270.4915 0023791 011.8505 348.3261 14.78165203446848
Epoch (UTC): 21 February 2020 16:14:03
Eccentricity: 0.0023791
inclination: 82.5200°
perigee height: 618 km
apogee height: 652 km
right ascension of ascending node: 270.4915°
argument of perigee: 11.8505°
revolutions per day: 14.78165203
mean anomaly at epoch: 348.3261°
orbit number at epoch: 44684

The dashed part of the orbit path shows where the satellite is in the earth's shadow,  

DLR